IISCHIA8 Weather Reports


time (UTC)temp
C
wind
direction
speed
KPH
gust
KPH
rain 1hr
cm
rain 24hr
cm
rain mn
cm
humidity
%
barometer
mb
20260504045832 15 198 1.6 4.8 0.00 0.00 0.00 89 1019.5
20260504045331 14 200 1.6 6.4 0.00 0.00 0.00 88 1019.4
20260504044814 14 197 3.2 6.4 0.00 0.00 0.00 88 1019.3
20260504044312 14 189 3.2 6.4 0.00 0.00 0.00 89 1019.2
20260504043801 13 209 3.2 6.4 0.00 0.00 0.00 89 1019.1
20260504043309 13 213 3.2 8.0 0.00 0.00 0.00 89 1019.1
20260504042802 13 188 3.2 8.0 0.00 0.00 0.00 88 1019.0
20260504042251 13 209 4.8 8.0 0.00 0.00 0.00 88 1018.9
20260504041740 13 232 4.8 8.0 0.00 0.00 0.00 88 1018.9
20260504041223 13 238 4.8 8.0 0.00 0.00 0.00 88 1018.9
20260504040729 13 214 4.8 8.0 0.00 0.00 0.00 88 1018.9
20260504035611 13 210 4.8 6.4 0.00 0.00 0.00 87 1018.9
20260504035053 13 211 3.2 6.4 0.00 0.00 0.00 87 1018.9
20260504034547 13 224 3.2 6.4 0.00 0.00 0.00 87 1018.8
20260504034042 13 209 3.2 6.4 0.00 0.00 0.00 87 1018.8
20260504033537 13 206 3.2 6.4 0.00 0.00 0.00 87 1018.9
20260504033042 13 211 4.8 6.4 0.00 0.00 0.00 86 1019.0
20260504031323 13 206 4.8 8.0 0.00 0.00 0.00 85 1019.1
20260504030820 13 191 3.2 8.0 0.00 0.00 0.00 85 1019.1
20260504030316 13 209 3.2 8.0 0.00 0.00 0.00 85 1019.1
20260504025757 13 207 4.8 6.4 0.00 0.00 0.00 85 1019.0
20260504025308 13 205 4.8 6.4 0.00 0.00 0.00 84 1019.1
20260504024759 13 205 3.2 6.4 0.00 0.00 0.00 84 1019.1
20260504024256 13 208 3.2 6.4 0.00 0.00 0.00 84 1019.1
20260504023141 13 207 3.2 6.4 0.00 0.00 0.00 84 1019.2
20260504022638 13 204 3.2 6.4 0.00 0.00 0.00 84 1019.2
20260504022148 13 209 3.2 8.0 0.00 0.00 0.00 84 1019.2
20260504021651 13 201 3.2 8.0 0.00 0.00 0.00 83 1019.3
20260504021140 13 210 3.2 8.0 0.00 0.00 0.00 83 1019.2
20260504020644 13 221 3.2 8.0 0.00 0.00 0.00 83 1019.2
20260504020147 13 213 3.2 6.4 0.00 0.00 0.00 83 1019.2
20260504015647 13 204 3.2 6.4 0.00 0.00 0.00 83 1019.3
20260504015133 13 207 3.2 6.4 0.00 0.00 0.00 82 1019.2
20260504013953 13 192 1.6 4.8 0.00 0.00 0.00 82 1019.1
20260504013445 13 196 1.6 4.8 0.00 0.00 0.00 82 1019.2
20260504011713 15 225 3.2 6.4 0.00 0.00 0.00 82 1019.3
20260504011203 15 213 3.2 4.8 0.00 0.00 0.00 82 1019.2
20260504010711 15 217 3.2 4.8 0.00 0.00 0.00 82 1019.1
20260504005548 15 234 1.6 4.8 0.00 0.00 0.00 82 1019.2
20260504005054 15 217 1.6 4.8 0.00 0.00 0.00 81 1019.3
20260504004559 15 214 1.6 4.8 0.00 0.00 0.00 81 1019.2
20260504004103 16 194 1.6 11.3 0.00 0.00 0.00 81 1019.3
20260504003554 16 250 1.6 11.3 0.00 0.00 0.00 82 1019.2
20260504003051 16 257 3.2 11.3 0.00 0.00 0.00 82 1019.2
20260504002559 16 282 3.2 11.3 0.00 0.00 0.00 82 1019.3
20260504002054 16 295 1.6 9.7 0.00 0.00 0.00 82 1019.3
20260504000911 16 215 1.6 9.7 0.00 0.00 0.00 81 1019.3
20260504000356 16 273 3.2 9.7 0.00 0.00 0.00 82 1019.4
20260503235905 16 275 3.2 9.7 0.00 0.00 0.00 82 1019.5
20260503235348 15 232 1.6 9.7 0.00 0.00 0.00 82 1019.4
20260503234841 15 213 1.6 4.8 0.00 0.00 0.00 80 1019.5
20260503234348 15 201 1.6 4.8 0.00 0.00 0.00 80 1019.4
20260503233846 15 204 1.6 3.2 0.00 0.00 0.00 79 1019.5
20260503233350 15 205 1.6 3.2 0.00 0.00 0.00 79 1019.5
20260503232843 15 192 1.6 4.8 0.00 0.00 0.00 78 1019.6
20260503232352 15 192 1.6 4.8 0.00 0.00 0.00 78 1019.5
20260503231848 15 209 1.6 9.7 0.00 0.00 0.00 78 1019.6
20260503231331 16 248 1.6 9.7 0.00 0.00 0.00 78 1019.5
20260503230814 16 248 1.6 9.7 0.00 0.00 0.00 80 1019.5
20260503230300 16 261 0.0 9.7 0.00 0.00 0.00 79 1019.5
20260503225140 17 267 4.8 11.3 0.00 0.00 0.00 80 1019.6
20260503224640 17 294 4.8 11.3 0.00 0.00 0.00 79 1019.7
20260503223509 17 286 1.6 9.7 0.00 0.00 0.00 79 1019.7
20260503223017 16 248 1.6 9.7 0.00 0.00 0.00 78 1019.6
20260503221857 17 282 3.2 12.9 0.00 0.00 0.00 78 1019.6
20260503221350 17 242 3.2 12.9 0.00 0.00 0.00 78 1019.6
20260503220852 17 280 4.8 12.9 0.00 0.00 0.00 78 1019.6
20260503215713 17 277 6.4 17.7 0.00 0.00 0.00 77 1019.5
20260503215209 17 263 8.0 17.7 0.00 0.00 0.00 77 1019.5
20260503214716 17 299 8.0 17.7 0.00 0.00 0.00 77 1019.4
20260503214218 17 288 9.7 16.1 0.00 0.00 0.00 77 1019.3
20260503213708 17 333 8.0 16.1 0.00 0.00 0.00 77 1019.3
20260503213155 17 315 8.0 16.1 0.00 0.00 0.00 77 1019.3
20260503212654 17 301 6.4 14.5 0.00 0.00 0.00 77 1019.4
20260503212158 17 302 6.4 12.9 0.00 0.00 0.00 78 1019.4
20260503211707 17 275 4.8 12.9 0.00 0.00 0.00 78 1019.4
20260503211201 17 286 4.8 12.9 0.00 0.00 0.00 78 1019.4
20260503210643 17 293 3.2 11.3 0.00 0.00 0.00 78 1019.5
20260503210144 17 302 6.4 14.5 0.00 0.00 0.00 77 1019.5
20260503205631 17 227 6.4 14.5 0.00 0.00 0.00 77 1019.5
20260503205139 17 291 8.0 19.3 0.00 0.00 0.00 78 1019.5
20260503204623 17 260 9.7 19.3 0.00 0.00 0.00 78 1019.4
20260503204114 17 271 9.7 19.3 0.00 0.00 0.00 78 1019.3
20260503203609 17 277 11.3 19.3 0.00 0.00 0.00 78 1019.4
20260503203108 17 277 11.3 22.5 0.00 0.00 0.00 78 1019.4
20260503202559 17 288 11.3 22.5 0.00 0.00 0.00 78 1019.2
20260503202046 17 288 11.3 29.0 0.00 0.00 0.00 77 1019.3
20260503201539 17 286 12.9 29.0 0.00 0.00 0.00 76 1019.2
20260503201043 17 283 14.5 29.0 0.00 0.00 0.00 74 1019.2
20260503200526 17 292 14.5 29.0 0.00 0.00 0.00 72 1019.2
20260503200013 18 288 11.3 22.5 0.00 0.00 0.00 66 1019.1
20260503194832 18 302 6.4 17.7 0.00 0.00 0.00 55 1018.9
20260503194314 17 277 1.6 11.3 0.00 0.00 0.00 55 1018.9
20260503193803 17 280 1.6 4.8 0.00 0.00 0.00 54 1019.0
20260503193255 18 304 0.0 16.1 0.00 0.00 0.00 56 1018.9
20260503192748 18 308 1.6 16.1 0.00 0.00 0.00 56 1018.9
20260503192251 18 263 4.8 16.1 0.00 0.00 0.00 51 1018.9
20260503191758 18 259 4.8 16.1 0.00 0.00 0.00 48 1018.8
20260503191257 18 318 3.2 12.9 0.00 0.00 0.00 51 1018.7
20260503190752 17 254 1.6 11.3 0.00 0.00 0.00 53 1018.8
20260503190246 17 242 1.6 8.0 0.00 0.00 0.00 57 1018.8
20260503185141 17 248 0.0 8.0 0.00 0.00 0.00 59 1018.6
20260503184629 17 105 1.6 8.0 0.00 0.00 0.00 61 1018.6
20260503184137 17 155 0.0 6.4 0.00 0.00 0.00 64 1018.6
20260503183625 17 213 0.0 9.7 0.00 0.00 0.00 63 1018.6
20260503183127 18 213 1.6 9.7 0.00 0.00 0.00 62 1018.4
20260503181356 18 279 4.8 17.7 0.00 0.00 0.00 47 1018.3
20260503180227 18 269 9.7 22.5 0.00 0.00 0.00 48 1018.2
20260503175722 18 251 9.7 22.5 0.00 0.00 0.00 51 1018.1
20260503175226 18 257 9.7 22.5 0.00 0.00 0.00 52 1018.2
20260503174730 18 291 11.3 22.5 0.00 0.00 0.00 56 1018.1
20260503172956 19 279 12.9 27.4 0.00 0.00 0.00 55 1018.0
20260503172443 19 300 14.5 27.4 0.00 0.00 0.00 57 1017.9
20260503171940 19 265 14.5 27.4 0.00 0.00 0.00 53 1017.8
20260503171436 19 273 12.9 27.4 0.00 0.00 0.00 54 1017.8
20260503170945 18 298 14.5 25.7 0.00 0.00 0.00 56 1017.7
20260503170427 18 291 16.1 25.7 0.00 0.00 0.00 60 1017.8
20260503150641 18 281 24.1 37.0 0.00 0.00 0.00 75 1018.5
20260503150136 18 281 22.5 38.6 0.00 0.00 0.00 74 1018.5
20260503131019 20 305 17.7 30.6 0.00 0.00 0.00 59 1019.2
20260503130501 20 309 19.3 32.2 0.00 0.00 0.00 61 1019.3
20260503110614 18 263 17.7 27.4 0.00 0.00 0.00 71 1020.0
20260503110117 18 290 17.7 27.4 0.00 0.00 0.00 71 1020.0
20260503090343 17 302 12.9 16.1 0.00 0.00 0.00 78 1020.7
20260503081251 16 336 6.4 11.3 0.00 0.00 0.00 81 1020.7
20260503080732 16 334 6.4 11.3 0.00 0.00 0.00 82 1020.7
20260503072227 15 313 6.4 12.9 0.00 0.00 0.00 84 1021.0
20260503071723 15 329 8.0 12.9 0.00 0.00 0.00 84 1020.9
20260503071228 15 329 8.0 12.9 0.00 0.00 0.00 84 1021.0
20260503070735 15 330 9.7 12.9 0.00 0.00 0.00 84 1020.9
20260503070219 15 337 9.7 14.5 0.00 0.00 0.00 85 1021.0
20260503060243 16 292 16.1 22.5 0.00 0.00 0.00 87 1020.9
20260503055115 16 287 11.3 16.1 0.00 0.00 0.00 86 1020.7
20260503054619 16 311 11.3 16.1 0.00 0.00 0.00 86 1020.6
20260503054113 16 299 8.0 14.5 0.00 0.00 0.00 86 1020.7
20260503053616 16 294 6.4 11.3 0.00 0.00 0.00 86 1020.6
20260503053110 16 305 4.8 9.7 0.00 0.00 0.00 86 1020.6
20260503052602 16 293 4.8 8.0 0.00 0.00 0.00 86 1020.6
20260503052058 16 284 4.8 9.7 0.00 0.00 0.00 86 1020.5